Marblemount, WA (98267)

5:36 PM PST on February 11, 2016 (GMT -0800)
Newhalem Helistop | | Change Station
CLOSE
Current Station
Personal Weather Station
Location: Newhalem, WA
Elevation: 504 ft
Nearby Weather Stations

Elev 504 ft 48.67 °N, 121.25 °W | Updated 4 seconds ago

Rain
Rain
46.6 °F
Feels Like 47 °F
N
0.0
Wind Variable Wind from NNW
Gusts 5.0 mph

Today
High -- | Low -- °F
--% Chance of Precip.
Yesterday
High -- | Low -- °F
Precip. -- in
Pressure 30.13 in
Visibility 9.0 miles
Clouds Overcast 4400 ft
Windchill 47 °F
Dew Point 45 °F
Humidity 95%
Rainfall 0.07 in
Snow Depth Not available.
7:20 AM 5:20 PM
Waxing Crescent, 16% visible
METAR KAWO 120135Z AUTO 02003KT 9SM OVC044 10/07 A3013 RMK AO1
Pressure 30.13 in
Visibility 9.0 miles
Clouds Overcast 4400 ft
Windchill 47 °F
Dew Point 45 °F
Humidity 95%
Rainfall 0.07 in
Snow Depth Not available.
7:20 AM 5:20 PM
Waxing Crescent, 16% visible
METAR KAWO 120135Z AUTO 02003KT 9SM OVC044 10/07 A3013 RMK AO1

10-Day Weather Forecast

Almanac

Astronomy

Feb. 11, 2016 Rise Set
Actual Time
Civil Twilight
Nautical Twilight
Astronomical Twilight
Moon
Length of Visible Light
Length of Day
Tomorrow will be .
, % of the Moon is Illuminated

Today's Extremes

State Highs State Lows

Community

WunderPhotos

Upload Photos

1,892,207 photos uploaded!

WunderBlog® & News

Nearby

Air Quality

  Air Quality AQ Index Pollutant
Not available.

Snow Depth

Station Depth Elevation

Earthquake Activity

City Distance Mag. Time & Date
Minimum magnitude displayed is 2.5.

Coastal Water Temperatures

Place Temperature

Stations

Nearby Weather Stations

Station Location Temp. Windchill Dew Point Humidity Wind Precip. Elev Updated Type
                   

Watches & Warnings

There are currently no watches in effect.